Overview Statistics Trail Chart Weather Telemetry Raw packets
 

This is the latest recevied weather packets stored in our database for station/object SV9TNF-52. If no packets are shown the sender has not sent any weather packets the latest 10 day(s).

<< 66 67 68 69 70 71 72 >>
Time Temp. Humidity Pressure Rain* Wind** Luminosity Snow
1788216480 22.78° C 58% 1019.6 hPa 0 mm 4.02 m/s, 172° - -
1788216180 22.78° C 59% 1019.6 hPa 0 mm 4.92 m/s, 221° - -
1788215880 22.78° C 59% 1019.6 hPa 0 mm 4.47 m/s, 208° - -
1788215580 22.78° C 58% 1019.6 hPa 0 mm 3.58 m/s, 241° - -
1788215280 22.78° C 58% 1019.6 hPa 0 mm 4.92 m/s, 234° - -
1788214979 22.78° C 58% 1019.6 hPa 0 mm 4.92 m/s, 162° - -
1788214679 22.78° C 58% 1019.6 hPa 0 mm 5.81 m/s, 228° - -
1788214379 22.78° C 58% 1019.6 hPa 0 mm 4.92 m/s, 222° - -
1788214079 22.78° C 58% 1019.6 hPa 0 mm 5.36 m/s, 136° - -
1788213779 22.78° C 58% 1019.6 hPa 0 mm 7.15 m/s, 182° - -
1788213479 22.78° C 59% 1019.6 hPa 0 mm 4.92 m/s, 191° - -
1788213179 22.78° C 58% 1019.6 hPa 0 mm 4.92 m/s, 232° - -
1788212879 23.33° C 56% 1019.6 hPa 0 mm 4.02 m/s, 208° - -
1788212579 23.33° C 56% 1019.6 hPa 0 mm 4.02 m/s, 240° - -
1788212279 23.33° C 57% 1019.6 hPa 0 mm 5.81 m/s, 223° - -
1788211978 23.33° C 56% 1020 hPa 0 mm 4.47 m/s, 230° - -
1788211678 23.33° C 57% 1020 hPa 0 mm 5.81 m/s, 248° - -
1788211378 23.33° C 57% 1020 hPa 0 mm 4.02 m/s, 247° - -
1788211078 23.33° C 56% 1020 hPa 0 mm 4.92 m/s, 251° - -
1788210778 23.33° C 57% 1020 hPa 0 mm 4.47 m/s, 151° - -
1788210478 22.78° C 57% 1020 hPa 0 mm 6.71 m/s, 223° - -
1788210178 22.78° C 57% 1020 hPa 0 mm 5.81 m/s, 187° - -
1788209878 23.33° C 56% 1020 hPa 0 mm 3.13 m/s, 180° - -
1788209578 23.33° C 56% 1020 hPa 0 mm 5.81 m/s, 232° - -
1788209278 23.33° C 56% 1020 hPa 0 mm 5.36 m/s, 216° - -

* Rain latest hour (hover to see other rain measurements)
** Current wind speed in m/s (hover to see current wind gust speed)